Year,Month,Day,Hour,Minute,Value (Times are PST for temperature in C)
2009,10,18,00,00,10.40
2009,10,18,00,01,10.40
2009,10,18,00,02,10.50
2009,10,18,00,03,10.60
2009,10,18,00,04,10.60
2009,10,18,00,05,10.60
2009,10,18,00,06,10.60
2009,10,18,00,09,10.60
2009,10,18,00,10,10.60
2009,10,18,00,11,10.60
2009,10,18,00,12,10.60
2009,10,18,00,14,10.40
2009,10,18,00,15,10.40
2009,10,18,00,16,10.40
2009,10,18,00,18,10.40
2009,10,18,00,19,10.40
2009,10,18,00,20,10.40
2009,10,18,00,21,10.40
2009,10,18,00,22,10.40
2009,10,18,00,23,10.40
2009,10,18,00,24,10.40
2009,10,18,00,25,10.40
2009,10,18,00,27,10.20
2009,10,18,00,28,10.10
2009,10,18,00,29,10.10
2009,10,18,00,30,10.10
2009,10,18,00,31,10.10
2009,10,18,00,33,9.90
2009,10,18,00,34,9.90
2009,10,18,00,35,9.90
2009,10,18,00,36,9.90
2009,10,18,00,37,9.90
2009,10,18,00,38,9.90
2009,10,18,00,40,9.90
2009,10,18,00,41,9.90
2009,10,18,00,42,9.90
2009,10,18,00,43,9.90
2009,10,18,00,44,9.90
2009,10,18,00,45,9.90
2009,10,18,00,46,9.90
2009,10,18,00,48,9.90
2009,10,18,00,51,9.90
2009,10,18,00,52,9.90
2009,10,18,00,53,9.90
2009,10,18,00,54,9.90
2009,10,18,00,56,9.90
2009,10,18,00,59,9.90
2009,10,18,01,00,9.90
2009,10,18,01,01,10.10
2009,10,18,01,02,10.10
2009,10,18,01,04,10.10
2009,10,18,01,06,10.10
2009,10,18,01,07,10.10
2009,10,18,01,08,10.10
2009,10,18,01,09,10.20
2009,10,18,01,10,10.20
2009,10,18,01,11,10.20
2009,10,18,01,12,10.10
2009,10,18,01,13,10.10
2009,10,18,01,14,10.10
2009,10,18,01,15,10.10
2009,10,18,01,16,9.90
2009,10,18,01,17,9.90
2009,10,18,01,20,9.90
2009,10,18,01,22,9.90
2009,10,18,01,24,9.90
2009,10,18,01,25,9.90
2009,10,18,01,26,9.90
2009,10,18,01,28,9.90
2009,10,18,01,29,9.90
2009,10,18,01,30,10.00
2009,10,18,01,31,10.10
2009,10,18,01,32,10.10
2009,10,18,01,33,10.10
2009,10,18,01,35,10.10
2009,10,18,01,36,10.10
2009,10,18,01,37,10.10
2009,10,18,01,38,10.10
2009,10,18,01,40,10.10
2009,10,18,01,41,10.10
2009,10,18,01,43,10.10
2009,10,18,01,44,10.10
2009,10,18,01,45,10.10
2009,10,18,01,46,10.10
2009,10,18,01,47,10.10
2009,10,18,01,48,10.10
2009,10,18,01,49,10.20
2009,10,18,01,50,10.20
2009,10,18,01,51,10.20
2009,10,18,01,53,10.20
2009,10,18,01,54,10.20
2009,10,18,01,55,10.20
2009,10,18,01,57,10.20
2009,10,18,01,58,10.30
2009,10,18,01,59,10.30
2009,10,18,02,00,10.30
2009,10,18,02,01,10.30
2009,10,18,02,02,10.40
2009,10,18,02,03,10.40
2009,10,18,02,05,10.40
2009,10,18,02,06,10.40
2009,10,18,02,07,10.40
2009,10,18,02,08,10.40
2009,10,18,02,09,10.40
2009,10,18,02,11,10.40
2009,10,18,02,12,10.40
2009,10,18,02,14,10.40
2009,10,18,02,15,10.40
2009,10,18,02,17,10.40
2009,10,18,02,18,10.40
2009,10,18,02,20,10.40
2009,10,18,02,22,10.40
2009,10,18,02,23,10.40
2009,10,18,02,25,10.40
2009,10,18,02,26,10.40
2009,10,18,02,27,10.40
2009,10,18,02,29,10.40
2009,10,18,02,30,10.40
2009,10,18,02,31,10.40
2009,10,18,02,32,10.40
2009,10,18,02,33,10.40
2009,10,18,02,36,10.40
2009,10,18,02,37,10.30
2009,10,18,02,40,10.30
2009,10,18,02,41,10.30
2009,10,18,02,43,10.30
2009,10,18,02,44,10.30
2009,10,18,02,45,10.30
2009,10,18,02,46,10.30
2009,10,18,02,47,10.30
2009,10,18,02,50,10.40
2009,10,18,02,51,10.40
2009,10,18,02,53,10.40
2009,10,18,02,54,10.40
2009,10,18,02,55,10.40
2009,10,18,02,58,10.40
2009,10,18,02,59,10.40
2009,10,18,03,00,10.50
2009,10,18,03,01,10.60
2009,10,18,03,02,10.60
2009,10,18,03,05,10.60
2009,10,18,03,06,10.60
2009,10,18,03,07,10.60
2009,10,18,03,08,10.60
2009,10,18,03,09,10.60
2009,10,18,03,10,10.60
2009,10,18,03,12,10.60
2009,10,18,03,13,10.60
2009,10,18,03,14,10.60
2009,10,18,03,15,10.60
2009,10,18,03,16,10.60
2009,10,18,03,17,10.60
2009,10,18,03,19,10.60
2009,10,18,03,20,10.60
2009,10,18,03,22,10.60
2009,10,18,03,23,10.60
2009,10,18,03,24,10.60
2009,10,18,03,25,10.60
2009,10,18,03,26,10.60
2009,10,18,03,27,10.60
2009,10,18,03,28,10.60
2009,10,18,03,30,10.40
2009,10,18,03,31,10.40
2009,10,18,03,32,10.40
2009,10,18,03,33,10.40
2009,10,18,03,35,10.30
2009,10,18,03,36,10.30
2009,10,18,03,37,10.30
2009,10,18,03,39,10.20
2009,10,18,03,40,10.20
2009,10,18,03,41,10.20
2009,10,18,03,43,10.20
2009,10,18,03,44,10.20
2009,10,18,03,45,10.10
2009,10,18,03,46,10.10
2009,10,18,03,48,10.10
2009,10,18,03,49,10.10
2009,10,18,03,52,10.10
2009,10,18,03,53,10.10
2009,10,18,03,54,10.10
2009,10,18,03,55,10.10
2009,10,18,03,56,10.10
2009,10,18,03,57,10.10
2009,10,18,03,58,10.10
2009,10,18,03,59,10.10
2009,10,18,04,00,10.10
2009,10,18,04,01,10.10
2009,10,18,04,02,10.10
2009,10,18,04,03,9.90
2009,10,18,04,04,9.90
2009,10,18,04,05,9.90
2009,10,18,04,06,9.90
2009,10,18,04,07,9.90
2009,10,18,04,08,9.90
2009,10,18,04,09,9.90
2009,10,18,04,10,9.90
2009,10,18,04,11,9.90
2009,10,18,04,12,9.90
2009,10,18,04,13,9.90
2009,10,18,04,14,9.90
2009,10,18,04,15,9.90
2009,10,18,04,16,9.90
2009,10,18,04,20,9.90
2009,10,18,04,21,9.90
2009,10,18,04,22,9.80
2009,10,18,04,23,9.80
2009,10,18,04,24,9.80
2009,10,18,04,25,9.80
2009,10,18,04,26,9.80
2009,10,18,04,27,9.80
2009,10,18,04,28,9.80
2009,10,18,04,29,9.70
2009,10,18,04,30,9.70
2009,10,18,04,31,9.70
2009,10,18,04,32,9.70
2009,10,18,04,34,9.70
2009,10,18,04,35,9.70
2009,10,18,04,36,9.70
2009,10,18,04,37,9.70
2009,10,18,04,38,9.70
2009,10,18,04,39,9.80
2009,10,18,04,40,9.70
2009,10,18,04,42,9.70
2009,10,18,04,43,9.70
2009,10,18,04,45,9.70
2009,10,18,04,46,9.70
2009,10,18,04,47,9.70
2009,10,18,04,48,9.80
2009,10,18,04,49,9.80
2009,10,18,04,50,9.80
2009,10,18,04,51,9.70
2009,10,18,04,52,9.70
2009,10,18,04,53,9.70
2009,10,18,04,54,9.70
2009,10,18,04,55,9.70
2009,10,18,04,56,9.70
2009,10,18,04,58,9.80
2009,10,18,04,59,9.80
2009,10,18,05,00,9.80
2009,10,18,05,01,9.80
2009,10,18,05,02,9.90
2009,10,18,05,03,9.90
2009,10,18,05,04,9.90
2009,10,18,05,05,9.90
2009,10,18,05,06,9.90
2009,10,18,05,07,10.10
2009,10,18,05,08,10.10
2009,10,18,05,09,10.10
2009,10,18,05,10,10.10
2009,10,18,05,11,10.20
2009,10,18,05,12,10.20
2009,10,18,05,13,10.20
2009,10,18,05,15,10.30
2009,10,18,05,16,10.40
2009,10,18,05,17,10.40
2009,10,18,05,18,10.40
2009,10,18,05,19,10.40
2009,10,18,05,20,10.40
2009,10,18,05,21,10.40
2009,10,18,05,22,10.40
2009,10,18,05,23,10.40
2009,10,18,05,24,10.40
2009,10,18,05,25,10.40
2009,10,18,05,26,10.40
2009,10,18,05,27,10.40
2009,10,18,05,28,10.40
2009,10,18,05,30,10.40
2009,10,18,05,31,10.40
2009,10,18,05,33,10.30
2009,10,18,05,34,10.30
2009,10,18,05,35,10.30
2009,10,18,05,37,10.30
2009,10,18,05,38,10.30
2009,10,18,05,39,10.30
2009,10,18,05,40,10.30
2009,10,18,05,41,10.40
2009,10,18,05,42,10.40
2009,10,18,05,43,10.40
2009,10,18,05,44,10.40
2009,10,18,05,45,10.40
2009,10,18,05,46,10.40
2009,10,18,05,47,10.40
2009,10,18,05,49,10.40
2009,10,18,05,51,10.60
2009,10,18,05,53,10.60
2009,10,18,05,54,10.60
2009,10,18,05,55,10.60
2009,10,18,05,56,10.60
2009,10,18,05,58,10.60
2009,10,18,05,59,10.60
2009,10,18,06,00,10.60
2009,10,18,06,01,10.60
2009,10,18,06,03,10.60
2009,10,18,06,04,10.60
2009,10,18,06,05,10.60
2009,10,18,06,06,10.60
2009,10,18,06,08,10.60
2009,10,18,06,09,10.60
2009,10,18,06,10,10.60
2009,10,18,06,11,10.60
2009,10,18,06,13,10.60
2009,10,18,06,14,10.50
2009,10,18,06,15,10.40
2009,10,18,06,16,10.40
2009,10,18,06,17,10.40
2009,10,18,06,19,10.40
2009,10,18,06,20,10.40
2009,10,18,06,21,10.40
2009,10,18,06,23,10.40
2009,10,18,06,24,10.40
2009,10,18,06,25,10.40
2009,10,18,06,27,10.40
2009,10,18,06,28,10.40
2009,10,18,06,29,10.40
2009,10,18,06,30,10.40
2009,10,18,06,31,10.40
2009,10,18,06,32,10.40
2009,10,18,06,34,10.40
2009,10,18,06,35,10.40
2009,10,18,06,37,10.40
2009,10,18,06,39,10.40
2009,10,18,06,41,10.40
2009,10,18,06,43,10.40
2009,10,18,06,44,10.40
2009,10,18,06,45,10.40
2009,10,18,06,47,10.40
2009,10,18,06,48,10.40
2009,10,18,06,49,10.30
2009,10,18,06,50,10.30
2009,10,18,06,51,10.30
2009,10,18,06,52,10.30
2009,10,18,06,54,10.30
2009,10,18,06,56,10.30
2009,10,18,06,57,10.30
2009,10,18,06,59,10.30
2009,10,18,07,00,10.30
2009,10,18,07,01,10.30
2009,10,18,07,02,10.30
2009,10,18,07,04,10.30
2009,10,18,07,05,10.30
2009,10,18,07,07,10.30
2009,10,18,07,08,10.20
2009,10,18,07,10,10.20
2009,10,18,07,11,10.20
2009,10,18,07,13,10.20
2009,10,18,07,14,10.20
2009,10,18,07,15,10.20
2009,10,18,07,17,10.20
2009,10,18,07,18,10.20
2009,10,18,07,20,10.20
2009,10,18,07,21,10.20
2009,10,18,07,22,10.10
2009,10,18,07,23,10.10
2009,10,18,07,24,10.10
2009,10,18,07,26,10.10
2009,10,18,07,27,10.10
2009,10,18,07,29,10.10
2009,10,18,07,30,10.10
2009,10,18,07,31,10.10
2009,10,18,07,32,10.10
2009,10,18,07,33,10.10
2009,10,18,07,34,10.10
2009,10,18,07,35,10.10
2009,10,18,07,36,10.10
2009,10,18,07,38,10.00
2009,10,18,07,39,9.90
2009,10,18,07,41,9.90
2009,10,18,07,42,9.90
2009,10,18,07,44,10.10
2009,10,18,07,45,10.10
2009,10,18,07,47,10.10
2009,10,18,07,48,10.10
2009,10,18,07,49,10.10
2009,10,18,07,50,10.10
2009,10,18,07,51,10.10
2009,10,18,07,52,10.10
2009,10,18,07,53,10.10
2009,10,18,07,54,10.10
2009,10,18,07,55,10.10
2009,10,18,07,56,10.10
2009,10,18,07,57,10.10
2009,10,18,07,58,10.10
2009,10,18,07,59,10.10
2009,10,18,08,00,10.10
2009,10,18,08,01,10.10
2009,10,18,08,02,10.20
2009,10,18,08,03,10.20
2009,10,18,08,04,10.20
2009,10,18,08,05,10.20
2009,10,18,08,06,10.20
2009,10,18,08,07,10.20
2009,10,18,08,08,10.20
2009,10,18,08,11,10.30
2009,10,18,08,12,10.30
2009,10,18,08,13,10.30
2009,10,18,08,14,10.30
2009,10,18,08,15,10.30
2009,10,18,08,16,10.30
2009,10,18,08,17,10.40
2009,10,18,08,18,10.40
2009,10,18,08,19,10.40
2009,10,18,08,20,10.40
2009,10,18,08,21,10.40
2009,10,18,08,22,10.40
2009,10,18,08,23,10.40
2009,10,18,08,24,10.60
2009,10,18,08,25,10.60
2009,10,18,08,26,10.60
2009,10,18,08,27,10.60
2009,10,18,08,28,10.60
2009,10,18,08,29,10.60
2009,10,18,08,30,10.60
2009,10,18,08,31,10.60
2009,10,18,08,32,10.60
2009,10,18,08,33,10.60
2009,10,18,08,34,10.60
2009,10,18,08,35,10.40
2009,10,18,08,36,10.40
2009,10,18,08,37,10.40
2009,10,18,08,41,10.40
2009,10,18,08,42,10.40
2009,10,18,08,43,10.40
2009,10,18,08,44,10.40
2009,10,18,08,45,10.40
2009,10,18,08,46,10.40
2009,10,18,08,47,10.40
2009,10,18,08,48,10.40
2009,10,18,08,49,10.40
2009,10,18,08,50,10.60
2009,10,18,08,51,10.60
2009,10,18,08,52,10.60
2009,10,18,08,53,10.60
2009,10,18,08,54,10.60
2009,10,18,08,57,10.60
2009,10,18,08,58,10.60
2009,10,18,08,59,10.60
2009,10,18,09,00,10.60
2009,10,18,09,01,10.60
2009,10,18,09,02,10.60
2009,10,18,09,03,10.70
2009,10,18,09,04,10.70
2009,10,18,09,06,10.80
2009,10,18,09,07,10.80
2009,10,18,09,08,10.80
2009,10,18,09,09,10.80
2009,10,18,09,10,10.80
2009,10,18,09,11,10.80
2009,10,18,09,12,10.80
2009,10,18,09,15,10.90
2009,10,18,09,16,10.90
2009,10,18,09,17,10.90
2009,10,18,09,18,10.90
2009,10,18,09,19,11.10
2009,10,18,09,20,11.10
2009,10,18,09,22,11.20
2009,10,18,09,23,11.20
2009,10,18,09,25,11.30
2009,10,18,09,26,11.30
2009,10,18,09,27,11.40
2009,10,18,09,28,11.40
2009,10,18,09,29,11.40
2009,10,18,09,30,11.40
2009,10,18,09,31,11.40
2009,10,18,09,32,11.40
2009,10,18,09,33,11.40
2009,10,18,09,34,11.40
2009,10,18,09,35,11.40
2009,10,18,09,36,11.30
2009,10,18,09,37,11.20
2009,10,18,09,38,11.20
2009,10,18,09,39,11.10
2009,10,18,09,40,11.10
2009,10,18,09,41,11.10
2009,10,18,09,42,11.10
2009,10,18,09,43,11.10
2009,10,18,09,44,11.20
2009,10,18,09,45,11.20
2009,10,18,09,46,11.20
2009,10,18,09,47,11.20
2009,10,18,09,48,11.20
2009,10,18,09,49,11.20
2009,10,18,09,50,11.20
2009,10,18,09,51,11.20
2009,10,18,09,52,11.20
2009,10,18,09,53,11.30
2009,10,18,09,54,11.30
2009,10,18,09,55,11.30
2009,10,18,09,56,11.40
2009,10,18,09,57,11.40
2009,10,18,09,58,11.40
2009,10,18,09,59,11.60
2009,10,18,10,00,11.60
2009,10,18,10,01,11.60
2009,10,18,10,02,11.40
2009,10,18,10,03,11.40
2009,10,18,10,05,11.40
2009,10,18,10,07,11.40
2009,10,18,10,08,11.40
2009,10,18,10,09,11.40
2009,10,18,10,10,11.40
2009,10,18,10,11,11.60
2009,10,18,10,12,11.40
2009,10,18,10,13,11.40
2009,10,18,10,14,11.40
2009,10,18,10,15,11.40
2009,10,18,10,16,11.40
2009,10,18,10,17,11.50
2009,10,18,10,18,11.60
2009,10,18,10,19,11.60
2009,10,18,10,20,11.60
2009,10,18,10,21,11.60
2009,10,18,10,22,11.60
2009,10,18,10,23,11.70
2009,10,18,10,24,11.70
2009,10,18,10,25,11.70
2009,10,18,10,26,11.70
2009,10,18,10,27,11.80
2009,10,18,10,28,11.80
2009,10,18,10,29,11.80
2009,10,18,10,30,11.80
2009,10,18,10,31,11.80
2009,10,18,10,32,11.80
2009,10,18,10,33,11.70
2009,10,18,10,34,11.70
2009,10,18,10,36,11.70
2009,10,18,10,37,11.70
2009,10,18,10,38,11.70
2009,10,18,10,39,11.70
2009,10,18,10,43,11.80
2009,10,18,10,44,11.80
2009,10,18,10,45,11.80
2009,10,18,10,46,11.80
2009,10,18,10,47,11.80
2009,10,18,10,48,11.80
2009,10,18,10,49,11.80
2009,10,18,10,50,11.80
2009,10,18,10,51,11.80
2009,10,18,10,52,11.80
2009,10,18,10,53,11.80
2009,10,18,10,54,11.90
2009,10,18,10,56,12.00
2009,10,18,10,57,12.00
2009,10,18,10,59,12.10
2009,10,18,11,00,12.20
2009,10,18,11,01,12.20
2009,10,18,11,02,12.30
2009,10,18,11,03,12.30
2009,10,18,11,04,12.30
2009,10,18,11,05,12.30
2009,10,18,11,06,12.40
2009,10,18,11,07,12.40
2009,10,18,11,08,12.40
2009,10,18,11,10,12.50
2009,10,18,11,11,12.50
2009,10,18,11,12,12.50
2009,10,18,11,13,12.60
2009,10,18,11,14,12.60
2009,10,18,11,15,12.60
2009,10,18,11,16,12.60
2009,10,18,11,17,12.60
2009,10,18,11,18,12.60
2009,10,18,11,19,12.70
2009,10,18,11,20,12.70
2009,10,18,11,21,12.70
2009,10,18,11,23,12.80
2009,10,18,11,24,12.80
2009,10,18,11,25,12.80
2009,10,18,11,27,12.80
2009,10,18,11,28,12.80
2009,10,18,11,30,12.80
2009,10,18,11,31,12.80
2009,10,18,11,32,12.80
2009,10,18,11,33,12.80
2009,10,18,11,35,13.00
2009,10,18,11,36,13.10
2009,10,18,11,38,13.20
2009,10,18,11,39,13.30
2009,10,18,11,40,13.30
2009,10,18,11,41,13.30
2009,10,18,11,42,13.50
2009,10,18,11,43,13.50
2009,10,18,11,45,13.50
2009,10,18,11,46,13.50
2009,10,18,11,48,13.60
2009,10,18,11,49,13.60
2009,10,18,11,51,13.70
2009,10,18,11,52,13.70
2009,10,18,11,54,13.60
2009,10,18,11,55,13.60
2009,10,18,11,57,13.50
2009,10,18,11,58,13.60
2009,10,18,12,00,13.60
2009,10,18,12,01,13.60
2009,10,18,12,02,13.60
2009,10,18,12,03,13.70
2009,10,18,12,05,13.70
2009,10,18,12,06,13.70
2009,10,18,12,07,13.70
2009,10,18,12,08,13.70
2009,10,18,12,09,13.80
2009,10,18,12,11,13.90
2009,10,18,12,12,13.90
2009,10,18,12,14,14.00
2009,10,18,12,15,14.00
2009,10,18,12,16,14.10
2009,10,18,12,17,14.10
2009,10,18,12,18,14.10
2009,10,18,12,20,14.20
2009,10,18,12,21,14.20
2009,10,18,12,23,14.20
2009,10,18,12,24,14.20
2009,10,18,12,25,14.20
2009,10,18,12,28,14.20
2009,10,18,12,29,14.30
2009,10,18,12,30,14.30
2009,10,18,12,31,14.50
2009,10,18,12,33,14.50
2009,10,18,12,34,14.50
2009,10,18,12,35,14.50
2009,10,18,12,36,14.50
2009,10,18,12,37,14.60
2009,10,18,12,38,14.60
2009,10,18,12,40,14.70
2009,10,18,12,41,14.80
2009,10,18,12,44,14.90
2009,10,18,12,45,15.00
2009,10,18,12,46,15.10
2009,10,18,12,48,15.30
2009,10,18,12,49,15.30
2009,10,18,12,50,15.40
2009,10,18,12,52,15.60
2009,10,18,12,53,15.60
2009,10,18,12,54,15.60
2009,10,18,12,55,15.60
2009,10,18,12,56,15.60
2009,10,18,12,57,15.60
2009,10,18,12,59,15.60
2009,10,18,13,00,15.50
2009,10,18,13,01,15.60
2009,10,18,13,02,15.60
2009,10,18,13,03,15.60
2009,10,18,13,04,15.60
2009,10,18,13,05,15.70
2009,10,18,13,06,15.70
2009,10,18,13,07,15.70
2009,10,18,13,08,15.70
2009,10,18,13,09,15.80
2009,10,18,13,10,15.80
2009,10,18,13,11,15.80
2009,10,18,13,13,15.80
2009,10,18,13,14,15.80
2009,10,18,13,15,15.80
2009,10,18,13,16,15.90
2009,10,18,13,17,15.90
2009,10,18,13,18,15.90
2009,10,18,13,19,15.80
2009,10,18,13,22,15.80
2009,10,18,13,23,15.80
2009,10,18,13,26,15.90
2009,10,18,13,27,16.00
2009,10,18,13,28,16.10
2009,10,18,13,30,16.20
2009,10,18,13,32,16.30
2009,10,18,13,33,16.30
2009,10,18,13,34,16.30
2009,10,18,13,35,16.30
2009,10,18,13,36,16.20
2009,10,18,13,37,16.10
2009,10,18,13,38,16.10
2009,10,18,13,41,16.20
2009,10,18,13,42,16.20
2009,10,18,13,43,16.30
2009,10,18,13,44,16.30
2009,10,18,13,45,16.40
2009,10,18,13,46,16.40
2009,10,18,13,47,16.40
2009,10,18,13,48,16.30
2009,10,18,13,50,16.30
2009,10,18,13,51,16.30
2009,10,18,13,53,16.20
2009,10,18,13,54,16.20
2009,10,18,13,55,16.30
2009,10,18,13,56,16.30
2009,10,18,13,57,16.30
2009,10,18,13,58,16.40
2009,10,18,13,59,16.40
2009,10,18,14,00,16.30
2009,10,18,14,01,16.30
2009,10,18,14,02,16.30
2009,10,18,14,03,16.20
2009,10,18,14,04,16.20
2009,10,18,14,05,16.30
2009,10,18,14,06,16.20
2009,10,18,14,07,16.30
2009,10,18,14,08,16.30
2009,10,18,14,09,16.30
2009,10,18,14,10,16.30
2009,10,18,14,11,16.30
2009,10,18,14,12,16.20
2009,10,18,14,13,16.20
2009,10,18,14,14,16.10
2009,10,18,14,15,16.10
2009,10,18,14,16,16.10
2009,10,18,14,17,16.10
2009,10,18,14,18,16.00
2009,10,18,14,19,15.90
2009,10,18,14,20,15.90
2009,10,18,14,21,15.80
2009,10,18,14,22,15.80
2009,10,18,14,23,15.80
2009,10,18,14,24,15.70
2009,10,18,14,25,15.70
2009,10,18,14,26,15.70
2009,10,18,14,27,15.60
2009,10,18,14,28,15.60
2009,10,18,14,29,15.60
2009,10,18,14,30,15.60
2009,10,18,14,31,15.50
2009,10,18,14,32,15.50
2009,10,18,14,33,15.50
2009,10,18,14,35,15.40
2009,10,18,14,36,15.40
2009,10,18,14,37,15.30
2009,10,18,14,38,15.30
2009,10,18,14,39,15.20
2009,10,18,14,40,15.20
2009,10,18,14,42,15.20
2009,10,18,14,43,15.10
2009,10,18,14,44,15.10
2009,10,18,14,45,15.10
2009,10,18,14,46,15.00
2009,10,18,14,47,14.90
2009,10,18,14,48,14.90
2009,10,18,14,49,14.80
2009,10,18,14,50,14.70
2009,10,18,14,51,14.60
2009,10,18,14,52,14.60
2009,10,18,14,53,14.50
2009,10,18,14,54,14.50
2009,10,18,14,55,14.50
2009,10,18,14,56,14.50
2009,10,18,14,57,14.50
2009,10,18,14,58,14.50
2009,10,18,14,59,14.50
2009,10,18,15,00,14.50
2009,10,18,15,02,14.30
2009,10,18,15,03,14.30
2009,10,18,15,04,14.20
2009,10,18,15,05,14.20
2009,10,18,15,06,14.10
2009,10,18,15,07,14.10
2009,10,18,15,08,14.00
2009,10,18,15,09,14.00
2009,10,18,15,10,13.90
2009,10,18,15,11,13.90
2009,10,18,15,12,13.80
2009,10,18,15,13,13.80
2009,10,18,15,14,13.80
2009,10,18,15,15,13.80
2009,10,18,15,16,13.80
2009,10,18,15,17,13.80
2009,10,18,15,18,13.80
2009,10,18,15,19,13.90
2009,10,18,15,20,13.90
2009,10,18,15,21,14.00
2009,10,18,15,22,14.00
2009,10,18,15,23,14.10
2009,10,18,15,24,14.10
2009,10,18,15,25,14.00
2009,10,18,15,26,14.00
2009,10,18,15,27,14.00
2009,10,18,15,28,13.90
2009,10,18,15,29,13.80
2009,10,18,15,30,13.80
2009,10,18,15,31,13.70
2009,10,18,15,32,13.70
2009,10,18,15,33,13.60
2009,10,18,15,34,13.60
2009,10,18,15,35,13.60
2009,10,18,15,36,13.60
2009,10,18,15,37,13.50
2009,10,18,15,38,13.50
2009,10,18,15,39,13.50
2009,10,18,15,43,13.40
2009,10,18,15,44,13.40
2009,10,18,15,45,13.40
2009,10,18,15,46,13.40
2009,10,18,15,47,13.40
2009,10,18,15,48,13.40
2009,10,18,15,49,13.40
2009,10,18,15,50,13.40
2009,10,18,15,51,13.40
2009,10,18,15,52,13.40
2009,10,18,15,53,13.50
2009,10,18,15,54,13.50
2009,10,18,15,55,13.50
2009,10,18,15,56,13.50
2009,10,18,15,58,13.50
2009,10,18,15,59,13.50
2009,10,18,16,00,13.50
2009,10,18,16,02,13.50
2009,10,18,16,03,13.50
2009,10,18,16,04,13.50
2009,10,18,16,05,13.50
2009,10,18,16,06,13.60
2009,10,18,16,07,13.60
2009,10,18,16,08,13.70
2009,10,18,16,09,13.70
2009,10,18,16,10,13.70
2009,10,18,16,11,13.70
2009,10,18,16,12,13.70
2009,10,18,16,13,13.70
2009,10,18,16,14,13.70
2009,10,18,16,15,13.80
2009,10,18,16,17,13.80
2009,10,18,16,18,13.80
2009,10,18,16,19,13.90
2009,10,18,16,20,13.90
2009,10,18,16,21,13.90
2009,10,18,16,22,13.90
2009,10,18,16,23,13.90
2009,10,18,16,24,13.90
2009,10,18,16,25,13.90
2009,10,18,16,26,13.90
2009,10,18,16,28,13.90
2009,10,18,16,29,13.90
2009,10,18,16,30,13.90
2009,10,18,16,31,13.90
2009,10,18,16,33,13.90
2009,10,18,16,34,13.90
2009,10,18,16,35,13.90
2009,10,18,16,36,13.90
2009,10,18,16,37,13.90
2009,10,18,16,38,13.90
2009,10,18,16,39,13.90
2009,10,18,16,40,13.90
2009,10,18,16,41,13.80
2009,10,18,16,42,13.80
2009,10,18,16,43,13.80
2009,10,18,16,44,13.80
2009,10,18,16,45,13.80
2009,10,18,16,46,13.80
2009,10,18,16,47,13.70
2009,10,18,16,48,13.70
2009,10,18,16,49,13.70
2009,10,18,16,50,13.70
2009,10,18,16,51,13.70
2009,10,18,16,52,13.70
2009,10,18,16,54,13.60
2009,10,18,16,55,13.60
2009,10,18,16,56,13.60
2009,10,18,16,57,13.60
2009,10,18,16,58,13.60
2009,10,18,16,59,13.50
2009,10,18,17,00,13.50
2009,10,18,17,01,13.50
2009,10,18,17,03,13.40
2009,10,18,17,04,13.50
2009,10,18,17,06,13.50
2009,10,18,17,07,13.50
2009,10,18,17,08,13.50
2009,10,18,17,09,13.50
2009,10,18,17,10,13.50
2009,10,18,17,12,13.50
2009,10,18,17,13,13.50
2009,10,18,17,14,13.50
2009,10,18,17,15,13.50
2009,10,18,17,16,13.50
2009,10,18,17,18,13.40
2009,10,18,17,19,13.40
2009,10,18,17,23,13.30
2009,10,18,17,24,13.30
2009,10,18,17,26,13.30
2009,10,18,17,27,13.30
2009,10,18,17,28,13.30
2009,10,18,17,29,13.30
2009,10,18,17,30,13.30
2009,10,18,17,31,13.30
2009,10,18,17,32,13.30
2009,10,18,17,33,13.30
2009,10,18,17,34,13.30
2009,10,18,17,35,13.30
2009,10,18,17,36,13.20
2009,10,18,17,37,13.20
2009,10,18,17,39,13.10
2009,10,18,17,40,13.10
2009,10,18,17,42,13.00
2009,10,18,17,43,12.90
2009,10,18,17,44,12.90
2009,10,18,17,45,12.90
2009,10,18,17,46,12.80
2009,10,18,17,48,12.80
2009,10,18,17,49,12.80
2009,10,18,17,50,12.80
2009,10,18,17,52,12.70
2009,10,18,17,53,12.70
2009,10,18,17,54,12.60
2009,10,18,17,55,12.60
2009,10,18,17,57,12.50
2009,10,18,17,58,12.50
2009,10,18,17,59,12.30
2009,10,18,18,00,12.30
2009,10,18,18,01,12.30
2009,10,18,18,02,12.20
2009,10,18,18,03,12.20
2009,10,18,18,04,12.20
2009,10,18,18,06,12.10
2009,10,18,18,07,12.10
2009,10,18,18,09,12.10
2009,10,18,18,10,12.10
2009,10,18,18,12,12.10
2009,10,18,18,13,12.10
2009,10,18,18,14,12.20
2009,10,18,18,15,12.10
2009,10,18,18,16,12.10
2009,10,18,18,18,12.10
2009,10,18,18,19,12.10
2009,10,18,18,21,12.00
2009,10,18,18,22,12.00
2009,10,18,18,23,12.00
2009,10,18,18,24,11.90
2009,10,18,18,25,11.90
2009,10,18,18,26,11.80
2009,10,18,18,27,11.80
2009,10,18,18,28,11.80
2009,10,18,18,29,11.80
2009,10,18,18,30,11.80
2009,10,18,18,32,11.70
2009,10,18,18,33,11.70
2009,10,18,18,35,11.60
2009,10,18,18,36,11.60
2009,10,18,18,37,11.60
2009,10,18,18,39,11.60
2009,10,18,18,40,11.60
2009,10,18,18,42,11.60
2009,10,18,18,43,11.60
2009,10,18,18,44,11.60
2009,10,18,18,47,11.60
2009,10,18,18,48,11.60
2009,10,18,18,49,11.40
2009,10,18,18,50,11.40
2009,10,18,18,51,11.40
2009,10,18,18,52,11.40
2009,10,18,18,53,11.40
2009,10,18,18,55,11.40
2009,10,18,18,56,11.40
2009,10,18,18,57,11.40
2009,10,18,18,58,11.30
2009,10,18,18,59,11.30
2009,10,18,19,00,11.30
2009,10,18,19,02,11.30
2009,10,18,19,04,11.20
2009,10,18,19,05,11.20
2009,10,18,19,06,11.20
2009,10,18,19,07,11.20
2009,10,18,19,08,11.20
2009,10,18,19,09,11.20
2009,10,18,19,10,11.20
2009,10,18,19,11,11.20
2009,10,18,19,12,11.20
2009,10,18,19,14,11.10
2009,10,18,19,15,11.10
2009,10,18,19,16,11.10
2009,10,18,19,17,11.10
2009,10,18,19,18,11.10
2009,10,18,19,19,11.10
2009,10,18,19,20,11.10
2009,10,18,19,21,11.10
2009,10,18,19,22,11.10
2009,10,18,19,24,11.10
2009,10,18,19,25,11.10
2009,10,18,19,26,11.10
2009,10,18,19,29,10.90
2009,10,18,19,30,10.90
2009,10,18,19,31,10.80
2009,10,18,19,32,10.80
2009,10,18,19,33,10.80
2009,10,18,19,34,10.80
2009,10,18,19,35,10.70
2009,10,18,19,36,10.70
2009,10,18,19,37,10.70
2009,10,18,19,38,10.60
2009,10,18,19,39,10.60
2009,10,18,19,41,10.60
2009,10,18,19,43,10.60
2009,10,18,19,44,10.60
2009,10,18,19,46,10.60
2009,10,18,19,47,10.60
2009,10,18,19,48,10.60
2009,10,18,19,49,10.60
2009,10,18,19,50,10.60
2009,10,18,19,51,10.60
2009,10,18,19,52,10.60
2009,10,18,19,54,10.70
2009,10,18,19,55,10.70
2009,10,18,19,56,10.80
2009,10,18,19,57,10.80
2009,10,18,19,58,10.80
2009,10,18,19,59,10.80
2009,10,18,20,00,10.90
2009,10,18,20,01,10.90
2009,10,18,20,02,10.90
2009,10,18,20,04,10.90
2009,10,18,20,05,10.90
2009,10,18,20,06,10.90
2009,10,18,20,07,10.90
2009,10,18,20,08,10.90
2009,10,18,20,09,10.90
2009,10,18,20,10,10.90
2009,10,18,20,11,10.90
2009,10,18,20,12,10.90
2009,10,18,20,13,10.90
2009,10,18,20,14,10.90
2009,10,18,20,15,10.90
2009,10,18,20,16,10.80
2009,10,18,20,17,10.80
2009,10,18,20,18,10.80
2009,10,18,20,20,10.80
2009,10,18,20,21,10.80
2009,10,18,20,23,10.70
2009,10,18,20,25,10.70
2009,10,18,20,26,10.70
2009,10,18,20,28,10.70
2009,10,18,20,29,10.70
2009,10,18,20,30,10.70
2009,10,18,20,31,10.70
2009,10,18,20,32,10.70
2009,10,18,20,33,10.60
2009,10,18,20,34,10.60
2009,10,18,20,35,10.60
2009,10,18,20,36,10.60
2009,10,18,20,37,10.60
2009,10,18,20,38,10.60
2009,10,18,20,39,10.60
2009,10,18,20,40,10.60
2009,10,18,20,42,10.60
2009,10,18,20,43,10.60
2009,10,18,20,44,10.60
2009,10,18,20,45,10.40
2009,10,18,20,46,10.40
2009,10,18,20,47,10.40
2009,10,18,20,48,10.40
2009,10,18,20,49,10.40
2009,10,18,20,50,10.40